This is the latest recevied weather packets stored in our database for station/object AD8AK. If no packets are shown the sender has not sent any weather packets the latest 10 day(s).
| Time | Temp. | Humidity | Pressure | Rain* | Wind** | Luminosity | Snow |
|---|---|---|---|---|---|---|---|
| 1777395290 | 17.22° C | 69% | 1012.9 hPa | 0 mm | - | - | - |
| 1777394988 | 17.22° C | 71% | 1012.7 hPa | 0 mm | - | - | - |
| 1777394684 | 17.22° C | 71% | 1012.8 hPa | 0 mm | - | - | - |
| 1777394380 | 17.22° C | 71% | 1012.8 hPa | 0 mm | - | - | - |
| 1777394078 | 17.78° C | 69% | 1012.5 hPa | 0 mm | - | - | - |
| 1777393773 | 17.22° C | 70% | 1012.4 hPa | 0 mm | - | - | - |
| 1777393472 | 17.78° C | 69% | 1012.6 hPa | 0 mm | - | - | - |
| 1777393168 | 17.78° C | 69% | 1012.4 hPa | 0 mm | - | - | - |
| 1777392865 | 17.78° C | 71% | 1012.5 hPa | 0 mm | - | - | - |
| 1777392560 | 17.78° C | 70% | 1012.3 hPa | 0 mm | - | - | - |
| 1777392257 | 17.22° C | 71% | 1012.4 hPa | 0 mm | - | - | - |
| 1777391952 | 17.22° C | 71% | 1012.1 hPa | 0 mm | - | - | - |
| 1777391647 | 17.22° C | 71% | 1012.3 hPa | 0 mm | - | - | - |
| 1777391343 | 17.78° C | 71% | 1012.3 hPa | 0 mm | - | - | - |
| 1777391041 | 17.22° C | 70% | 1012.3 hPa | 0 mm | - | - | - |
| 1777390736 | 17.78° C | 68% | 1011.9 hPa | 0 mm | - | - | - |
| 1777390433 | 17.78° C | 71% | 1012 hPa | 0 mm | - | - | - |
| 1777390129 | 17.78° C | 70% | 1011.8 hPa | 0 mm | - | - | - |
| 1777389826 | 17.78° C | 73% | 1011.7 hPa | 0 mm | - | - | - |
| 1777389524 | 17.78° C | 71% | 1011.7 hPa | 0 mm | - | - | - |
| 1777389220 | 17.78° C | 73% | 1011.4 hPa | 0 mm | - | - | - |
| 1777388918 | 17.78° C | 74% | 1011.4 hPa | 0 mm | - | - | - |
| 1777388614 | 18.33° C | 73% | 1011.4 hPa | 0 mm | - | - | - |
| 1777388311 | 17.78° C | 74% | 1011.5 hPa | 0 mm | - | - | - |
| 1777388010 | 17.78° C | 72% | 1011.5 hPa | 0 mm | - | - | - |
* Rain latest hour (hover to see other rain measurements)
** Current wind speed in m/s (hover to see current wind gust speed)